Location: Battery Park City
(40.7115°N, 74.0163°W)
Time: 10:56:41
(UTC+00:00)

Cosmos 1908 Rocket - Pass Details

Date: 08 December 2019
Orbit: 605 x 633 km, 82.5° (Epoch: 24 January)

Event Time Altitude Azimuth Distance (km) Brightness Sun altitude
Rises 23:17:16 0° 348° (NNW) 2,908 7.0 -20.0°
Reaches altitude 10° 23:19:32 10° 345° (NNW) 1,992 6.2 -20.4°
Maximum altitude 23:23:53 61° 265° (W) 703 4.0 -21.2°
Drops below altitude 10° 23:28:09 10° 186° (S) 1,960 6.3 -22.0°
Sets 23:30:22 0° 183° (S) 2,856 7.1 -22.4°
